Chetek, WI

1:28 AM CDT on September 30, 2016 (GMT -0500)
Chetek Municipal Southworth A | | Change Station

Elev 1053 ft 45.31 °N, 91.64 °W | Updated 13 minutes ago

Clear
Clear
53 °F
Feels Like 53 °F
N
0
Wind Variable Wind from North

Today
High -- | Low -- °F
--% Chance of Precip.
Yesterday
High -- | Low -- °F
Precip. -- in
Pressure 30.40 in
Visibility 10.0 miles
Clouds Clear
Dew Point 52 °F
Humidity 96%
Rainfall 0.00 in
Snow Depth Not available.
7:04 AM 6:47 PM
Waning Crescent, 1% visible
METAR KY23 300615Z AUTO 00000KT 10SM CLR 12/11 A3040 RMK AO2 T01160110
Pressure 30.40 in
Visibility 10.0 miles
Clouds Clear
Dew Point 52 °F
Humidity 96%
Rainfall 0.00 in
Snow Depth Not available.
7:04 AM 6:47 PM
Waning Crescent, 1% visible
METAR KY23 300615Z AUTO 00000KT 10SM CLR 12/11 A3040 RMK AO2 T01160110

10-Day Weather Forecast

Almanac

Astronomy

Sep. 30, 2016 Rise Set
Actual Time
Civil Twilight
Nautical Twilight
Astronomical Twilight
Moon
Length of Visible Light
Length of Day
Tomorrow will be .
, % of the Moon is Illuminated

Today's Extremes

State Highs State Lows

Community

WunderPhotos

Upload Photos

1,942,668 photos uploaded!

WunderBlog® & News

Nearby

Air Quality

  Air Quality AQ Index Pollutant
Not available.

Snow Depth

Station Depth Elevation

Earthquake Activity

City Distance Mag. Time & Date
Minimum magnitude displayed is 2.5.

Coastal Water Temperatures

Place Temperature

Stations

Nearby Weather Stations

Station Location Temp. Windchill Dew Point Humidity Wind Precip. Elev Updated Type
                   

Watches & Warnings

There are currently no watches in effect.